EW4498 Weather Reports


Display with metric or nautical units.
time (UTC)temp
F
wind
direction
speed
MPH
gust
MPH
rain 1hr
in
rain 24hr
in
rain mn
in
humidity
%
barometer
mb
20260510043035 46 104 0.0 1.0 0.00 0.00 0.00 81 1015.6
20260510041533 46 104 0.0 0.0 0.00 0.00 0.00 82 1015.7
20260510040031 46 104 0.0 0.0 0.00 0.00 0.00 82 1015.9
20260510034528 46 104 0.0 0.0 0.00 0.00 0.00 80 1016.1
20260510033031 46 104 0.0 0.0 0.00 0.00 0.00 80 1016.0
20260510031527 46 104 0.0 0.0 0.00 0.00 0.00 80 1016.1
20260510030023 46 104 0.0 0.0 0.00 0.00 0.00 80 1016.1
20260510024523 46 104 0.0 0.0 0.00 0.00 0.00 80 1016.2
20260510023021 45 104 0.0 0.0 0.00 0.00 0.00 81 1016.4
20260510021546 45 104 0.0 0.0 0.00 0.00 0.00 81 1016.6
20260510020017 45 104 0.0 0.0 0.00 0.00 0.00 80 1016.8
20260510014530 45 104 0.0 1.0 0.00 0.00 0.00 80 1016.8
20260510013013 45 104 0.0 2.0 0.00 0.00 0.00 80 1016.9
20260510011516 45 104 1.0 3.0 0.00 0.00 0.00 81 1016.9
20260510010020 44 160 1.0 2.0 0.00 0.00 0.00 83 1017.2
20260510004506 44 179 0.0 0.0 0.00 0.00 0.00 85 1017.5
20260510003003 43 179 0.0 0.0 0.00 0.00 0.00 86 1017.9
20260510001609 42 179 0.0 0.0 0.00 0.00 0.00 86 1018.2
20260510000058 42 179 0.0 0.0 0.00 0.00 0.00 86 1018.3
20260509234555 41 179 0.0 0.0 0.00 0.00 0.00 85 1018.5
20260509233054 41 179 0.0 0.0 0.00 0.00 0.00 84 1018.7
20260509231552 40 179 0.0 0.0 0.00 0.00 0.00 86 1018.8
20260509230050 39 179 0.0 0.0 0.00 0.00 0.00 86 1018.9
20260509224545 38 179 0.0 0.0 0.00 0.00 0.00 85 1019.2
20260509223044 38 179 0.0 0.0 0.00 0.00 0.00 84 1019.3
20260509221542 38 179 0.0 0.0 0.00 0.00 0.00 83 1019.3
20260509220039 39 179 0.0 0.0 0.00 0.00 0.00 83 1019.4
20260509214542 39 179 0.0 0.0 0.00 0.00 0.00 82 1019.5
20260509213038 40 179 0.0 0.0 0.00 0.00 0.00 81 1019.5
20260509211538 40 179 0.0 0.0 0.00 0.00 0.00 78 1019.5
20260509210044 41 179 0.0 0.0 0.00 0.00 0.00 76 1019.7
20260509204538 43 179 0.0 0.0 0.00 0.00 0.00 73 1019.7
20260509203036 44 179 0.0 0.0 0.00 0.00 0.00 70 1019.8
20260509201539 46 179 0.0 0.0 0.00 0.00 0.00 69 1019.7
20260509200039 47 179 0.0 0.0 0.00 0.00 0.00 67 1019.8
20260509194550 49 179 0.0 0.0 0.00 0.00 0.00 65 1019.8
20260509193035 49 179 0.0 1.0 0.00 0.00 0.00 63 1019.8
20260509191534 50 179 1.0 3.0 0.00 0.00 0.00 63 1019.7
20260509190036 51 143 1.0 3.0 0.00 0.00 0.00 62 1019.5
20260509184535 52 128 1.0 4.0 0.00 0.00 0.00 59 1019.4
20260509183035 53 175 1.0 7.0 0.00 0.00 0.00 55 1019.5
20260509181532 54 156 3.0 9.0 0.00 0.00 0.00 50 1019.5
20260509180042 55 157 5.0 8.0 0.00 0.00 0.00 47 1019.4
20260509174531 55 179 3.0 8.0 0.00 0.00 0.00 46 1019.5
20260509173034 56 123 5.0 8.0 0.00 0.00 0.00 45 1019.5
20260509171535 57 144 5.0 11.0 0.00 0.00 0.00 44 1019.5
20260509170028 57 145 4.0 9.0 0.00 0.00 0.00 45 1019.6
20260509164526 57 140 5.0 9.0 0.00 0.00 0.00 44 1019.8
20260509163027 58 157 4.0 9.0 0.00 0.00 0.00 44 1019.8
20260509161523 58 109 4.0 10.0 0.00 0.00 0.00 47 1019.8
20260509160020 58 115 4.0 10.0 0.00 0.00 0.00 47 1020.0
20260509154518 58 92 7.0 12.0 0.00 0.00 0.00 47 1020.2
20260509153029 58 96 6.0 13.0 0.00 0.00 0.00 48 1020.4
20260509151514 58 77 6.0 12.0 0.00 0.00 0.00 48 1020.5
20260509150017 59 85 5.0 13.0 0.00 0.00 0.00 48 1020.6
20260509144511 59 88 6.0 12.0 0.00 0.00 0.00 47 1020.8
20260509143009 59 65 5.0 13.0 0.00 0.00 0.00 46 1020.9
20260509141507 59 74 6.0 12.0 0.00 0.00 0.00 47 1021.0
20260509140006 59 92 5.0 9.0 0.00 0.00 0.00 50 1021.2
20260509134505 59 136 6.0 12.0 0.00 0.00 0.00 47 1021.3
20260509133004 60 89 8.0 12.0 0.00 0.00 0.00 48 1021.5
20260509131604 59 60 5.0 11.0 0.00 0.00 0.00 47 1021.7
20260509130058 60 69 7.0 13.0 0.00 0.00 0.00 44 1021.9
20260509124557 59 94 4.0 9.0 0.00 0.00 0.00 44 1022.0
20260509123054 59 119 4.0 10.0 0.00 0.00 0.00 41 1022.2
20260509121553 59 108 3.0 11.0 0.00 0.00 0.00 42 1022.4
20260509120053 59 80 5.0 11.0 0.00 0.00 0.00 41 1022.5
20260509114550 58 80 6.0 12.0 0.00 0.00 0.00 39 1022.5
20260509113049 59 53 5.0 11.0 0.00 0.00 0.00 37 1022.6
20260509111551 58 82 3.0 10.0 0.00 0.00 0.00 37 1022.6
20260509110045 58 82 4.0 9.0 0.00 0.00 0.00 38 1022.8
20260509104544 58 93 3.0 10.0 0.00 0.00 0.00 43 1022.9
20260509103047 57 69 2.0 9.0 0.00 0.00 0.00 43 1023.1
20260509101539 57 62 5.0 10.0 0.00 0.00 0.00 40 1023.1
20260509100035 57 69 4.0 11.0 0.00 0.00 0.00 43 1023.0
20260509094534 56 94 4.0 9.0 0.00 0.00 0.00 44 1023.0
20260509093029 56 146 5.0 10.0 0.00 0.00 0.00 42 1023.0
20260509091524 55 116 4.0 9.0 0.00 0.00 0.00 45 1023.1
20260509090034 55 144 5.0 9.0 0.00 0.00 0.00 44 1023.1
20260509084517 55 84 4.0 10.0 0.00 0.00 0.00 47 1023.1
20260509083012 54 71 6.0 11.0 0.00 0.00 0.00 46 1023.2
20260509081509 54 104 4.0 10.0 0.00 0.00 0.00 47 1023.3
20260509080005 54 115 4.0 11.0 0.00 0.00 0.00 49 1023.3
20260509074614 54 71 5.0 10.0 0.00 0.00 0.00 47 1023.3
20260509073107 53 79 6.0 11.0 0.00 0.00 0.00 49 1023.3
20260509071557 53 81 4.0 9.0 0.00 0.00 0.00 54 1023.4
20260509070051 52 83 4.0 9.0 0.00 0.00 0.00 51 1023.4
20260509064544 51 114 3.0 9.0 0.00 0.00 0.00 53 1023.5
20260509063053 50 84 4.0 8.0 0.00 0.00 0.00 59 1023.5
20260509061537 49 46 5.0 9.0 0.00 0.00 0.00 61 1023.4
20260509060030 48 67 4.0 8.0 0.00 0.00 0.00 63 1023.4
20260509054527 47 65 3.0 6.0 0.00 0.00 0.00 69 1023.5
20260509053032 48 38 3.0 5.0 0.00 0.00 0.00 67 1023.6
20260509051518 46 28 1.0 4.0 0.00 0.00 0.00 67 1023.5
20260509050012 44 92 0.0 3.0 0.00 0.00 0.00 76 1023.5
20260509044507 40 98 0.0 0.0 0.00 0.00 0.00 81 1023.5